[[{"header":{"parameterUnit":"m.s-1","parameterCategory":1,"la1":30.2991,"la2":30.254,"lo1":-89.0895,"lo2":-89.0444,"dy":0.0017,"dx":0.0017,"nx":28,"ny":28,"refTime":"2025-04-07T21:00:00:Z","depth":0,"parameterNumber":2,"parameterNumberName":"U-component_of_WINDS"},"data":[0,0,0,0,0,0,0,0,0,0,0,0,0,0,0,0,0,0,0,0,0,0,0,0,0,0,0,0,0,0,0,0,0,0,0,0,0,0,0,0,0,0,0,0,0,0,0,0,0,0,0,0,0,0,0,0,0,0,-2.3731,-2.3731,0,-2.3744,-2.3744,-2.3744,-2.3681,-2.368,-2.3678,-2.3676,-2.369,-2.3692,-2.3694,0,0,0,0,0,0,0,0,0,0,0,0,0,-2.3654,-2.3656,-2.3731,-2.3731,-2.3732,-2.3744,-2.3744,-2.3744,-2.3682,-2.368,-2.3677,-2.3675,-2.3689,-2.3692,-2.3694,0,0,0,0,0,0,0,0,0,0,0,0,0,-2.3679,-2.3657,-2.3731,-2.3702,-2.3699,-2.3744,-2.3744,-2.3744,-2.3682,-2.368,-2.3677,-2.3674,-2.3688,-2.3691,-2.3694,-2.3768,0,0,-2.3704,-2.3705,0,0,0,0,0,0,0,0,-2.3678,-2.3682,-2.3706,-2.3704,-2.3701,-2.3708,-2.3722,-2.3752,-2.3683,-2.3689,-2.3676,-2.3673,-2.3698,-2.37,-2.3709,-2.3769,-2.3769,-2.3704,-2.3706,-2.3707,-2.3708,0,0,0,0,0,0,0,-2.3676,-2.3681,-2.3736,-2.3707,-2.3704,-2.3688,-2.3689,-2.3727,-2.3709,-2.3688,-2.3684,-2.3686,-2.3696,-2.3706,-2.3709,-2.3769,-2.3704,-2.3707,-2.3709,-2.371,-2.389,-2.3893,0,0,0,0,0,0,-2.3678,-2.368,-2.3736,-2.3737,-2.3683,-2.3692,-2.3693,-2.3709,-2.3708,-2.3705,-2.3688,-2.3683,-2.3702,-2.3705,-2.3709,-2.3795,-2.3707,-2.371,-2.3712,-2.3887,-2.3891,-2.3894,0,0,0,0,0,0,-2.3677,-2.3684,-2.3735,-2.3707,-2.3713,-2.3696,-2.3715,-2.3711,-2.372,-2.3708,-2.3705,-2.3701,-2.37,-2.3705,-2.3754,-2.3795,-2.3712,-2.3714,-2.3884,-2.3889,-2.3893,-2.3968,0,0,0,0,0,0,-2.3675,-2.3684,-2.3711,-2.3708,-2.3714,-2.378,-2.3717,-2.3713,-2.3725,-2.3718,-2.3719,-2.3717,-2.3698,-2.3749,-2.3757,-2.3797,-2.3717,-2.388,-2.3886,-2.3891,-2.3962,-2.3974,-2.3985,0,0,0,0,0,-2.3673,-2.3732,-2.3713,-2.372,-2.3748,-2.3782,-2.3786,-2.3763,-2.3729,-2.3756,-2.3749,-2.3717,-2.3789,-2.3755,-2.3763,-2.3805,-2.3878,-2.3884,-2.3891,-2.3956,-2.3972,-2.3985,0,0,0,0,0,0,-2.374,-2.3731,-2.371,-2.377,-2.3778,-2.3772,-2.3806,-2.378,-2.3797,-2.379,-2.3761,-2.3762,-2.3816,-2.3815,-2.3778,-2.3876,-2.3827,-2.3836,-2.3875,-2.3889,-2.3901,-2.39,-2.3719,0,0,0,0,0,-2.3762,-2.3791,-2.3781,-2.3835,-2.384,-2.3823,-2.3836,-2.3818,-2.3825,-2.3827,-2.3823,-2.3831,-2.3856,-2.3872,-2.3894,-2.3961,-2.3961,-2.3994,-2.4006,-2.4015,-2.4023,-2.4059,-2.4074,-2.3916,-2.3916,-2.3916,0,0,-2.3808,-2.3806,-2.3826,-2.3849,-2.3852,-2.3882,-2.3825,-2.386,-2.3882,-2.3833,-2.3879,-2.3876,-2.3883,-2.3942,-2.3967,-2.3943,-2.4067,-2.4024,-2.4032,-2.4034,-2.4067,-2.4082,-2.4096,-2.392,-2.392,-2.3919,0,0,-2.3907,-2.3908,-2.3954,-2.3958,-2.3964,-2.3953,-2.3964,-2.3962,-2.3958,-2.4004,-2.3968,-2.3994,-2.4037,-2.4043,-2.4052,-2.4154,-2.4125,-2.4162,-2.4223,-2.4258,-2.4271,-2.4282,-2.4318,-2.4332,-2.4169,-2.417,-2.417,0,-2.3963,-2.4006,-2.398,-2.4017,-2.4028,-2.3985,-2.4031,-2.4037,-2.405,-2.4059,-2.4031,-2.4084,-2.4085,-2.4145,-2.417,-2.4179,-2.4191,-2.4161,-2.4271,-2.4282,-2.4292,-2.4326,-2.434,-2.4174,-2.4173,-2.4173,-2.4173,0,-2.4075,-2.4106,-2.4142,-2.4156,-2.4171,-2.4213,-2.4193,-2.4212,-2.4192,-2.4184,-2.4231,-2.4231,-2.4253,-2.4265,-2.4247,-2.4323,-2.4307,-2.4276,-2.4226,-2.4311,-2.4344,-2.4357,-2.418,-2.4179,-2.4177,-2.4176,0,0,-2.4217,-2.4216,-2.423,-2.4235,-2.4239,-2.4263,-2.4302,-2.4323,-2.434,-2.435,-2.4383,-2.442,-2.4391,-2.4401,-2.4383,-2.4414,-2.4495,-2.4378,-2.4378,-2.44,-2.4579,-2.4603,-2.4619,-2.4476,-2.4478,-2.448,-2.4579,0,-2.4314,-2.4381,-2.4359,-2.4427,-2.4456,-2.4415,-2.445,-2.4456,-2.4449,-2.4473,-2.4465,-2.4492,-2.4451,-2.4457,-2.4486,-2.4479,-2.4531,-2.4472,-2.4506,-2.4508,-2.4506,-2.4636,-2.4661,-2.4754,-2.4591,-2.4593,-2.4595,0,-2.4435,-2.4451,-2.4522,-2.4522,-2.4533,-2.4564,-2.4581,-2.4604,-2.4611,-2.4603,-2.4615,-2.459,-2.463,-2.458,-2.4634,-2.4594,-2.4607,-2.4606,-2.4609,-2.4612,-2.4557,-2.4642,-2.4783,-2.4797,-2.4614,-2.4613,-2.4611,0,-2.4532,-2.4571,-2.4618,-2.4625,-2.4625,-2.4648,-2.4649,-2.4653,-2.4667,-2.4682,-2.4691,-2.4711,-2.4722,-2.4738,-2.4719,-2.4685,-2.4776,-2.4725,-2.4772,-2.4772,-2.4793,-2.4792,-2.4938,-2.4801,-2.4801,-2.4801,-2.48,0,-2.4643,-2.4688,-2.4662,-2.4691,-2.4741,-2.4715,-2.4765,-2.4762,-2.4766,-2.4794,-2.476,-2.4788,-2.4761,-2.4787,-2.4772,-2.4819,-2.4825,-2.482,-2.4816,-2.4823,-2.4824,-2.4831,-2.4824,-2.4804,-2.4803,-2.4803,-2.4802,0,-2.4759,-2.4743,-2.4792,-2.4789,-2.4789,-2.4826,-2.4823,-2.485,-2.4841,-2.4877,-2.4884,-2.487,-2.4897,-2.488,-2.4909,-2.4899,-2.4961,-2.4947,-2.4958,-2.4955,-2.5002,-2.4998,-2.5159,-2.5179,-2.5029,-2.5031,-2.5032,0,-2.483,-2.4864,-2.4864,-2.4881,-2.4884,-2.4911,-2.4925,-2.4902,-2.4918,-2.4928,-2.4954,-2.4979,-2.4998,-2.5044,-2.5036,-2.5058,-2.5045,-2.51,-2.5048,-2.5055,-2.5046,-2.5045,-2.5048,-2.5111,-2.5112,-2.5114,-2.5115,0,-2.4959,-2.495,-2.4971,-2.4991,-2.5008,-2.5022,-2.5033,-2.5049,-2.5025,-2.5045,-2.5073,-2.5088,-2.5117,-2.5142,-2.5161,-2.5162,-2.5135,-2.5131,-2.5143,-2.5151,-2.5156,-2.5154,-2.4987,-2.5128,-2.5126,-2.5125,-2.5125,-2.5124,-2.5055,-2.5083,-2.5088,-2.5113,-2.5119,-2.5131,-2.5156,-2.515,-2.5173,-2.5195,-2.5179,-2.5213,-2.5219,-2.5241,-2.5246,-2.5272,-2.525,-2.5267,-2.5271,-2.5276,-2.5283,-2.5152,-2.5275,-2.5275,-2.5274,-2.5274,-2.5274,0,-2.5182,-2.5183,-2.5207,-2.5224,-2.5244,-2.5216,-2.5227,-2.5246,-2.5276,-2.5284,-2.5303,-2.5335,-2.536,-2.5354,-2.5376,-2.5398,-2.5387,-2.5405,-2.5403,-2.5404,-2.5301,-2.5289,-2.5414,-2.5414,-2.5414,-2.5414,-2.5414,-2.5414,-2.5251,-2.5297,-2.5289,-2.5338,-2.5339,-2.5371,-2.538,-2.5391,-2.5397,-2.5435,-2.5455,-2.5451,-2.5454,-2.5476,-2.5497,-2.5495,-2.5505,-2.5528,-2.5521,-2.5425,-2.5411,-2.5398,-2.5386,-2.553,-2.553,-2.5622,-2.5623,-2.5623]},{"header":{"parameterUnit":"m.s-1","parameterCategory":1,"la1":30.2991,"la2":30.254,"lo1":-89.0895,"lo2":-89.0444,"dy":0.0017,"dx":0.0017,"nx":28,"ny":28,"refTime":"2025-04-07T21:00:00:Z","depth":0,"parameterNumber":3,"parameterNumberName":"V-component_of_WINDS"},"data":[0,0,0,0,0,0,0,0,0,0,0,0,0,0,0,0,0,0,0,0,0,0,0,0,0,0,0,0,0,0,0,0,0,0,0,0,0,0,0,0,0,0,0,0,0,0,0,0,0,0,0,0,0,0,0,0,0,0,-1.7297,-1.7297,0,-1.7318,-1.7318,-1.7319,-1.7287,-1.7286,-1.7285,-1.7283,-1.7305,-1.7307,-1.7309,0,0,0,0,0,0,0,0,0,0,0,0,0,-1.7228,-1.7229,-1.7297,-1.7297,-1.7297,-1.7318,-1.7318,-1.7319,-1.7287,-1.7286,-1.7284,-1.7283,-1.7305,-1.7307,-1.7309,0,0,0,0,0,0,0,0,0,0,0,0,0,-1.7254,-1.723,-1.7297,-1.7284,-1.7283,-1.7318,-1.7318,-1.7319,-1.7287,-1.7286,-1.7284,-1.7282,-1.7304,-1.7307,-1.7309,-1.7357,0,0,-1.7316,-1.7317,0,0,0,0,0,0,0,0,-1.7253,-1.7257,-1.7286,-1.7285,-1.7284,-1.7298,-1.7302,-1.7332,-1.7288,-1.7286,-1.7283,-1.7282,-1.7304,-1.7307,-1.7314,-1.7358,-1.7359,-1.7317,-1.7318,-1.7319,-1.732,0,0,0,0,0,0,0,-1.7251,-1.7256,-1.7305,-1.7286,-1.7285,-1.7277,-1.7279,-1.7308,-1.7304,-1.7286,-1.7283,-1.7286,-1.7304,-1.7312,-1.7315,-1.736,-1.7317,-1.7319,-1.732,-1.7321,-1.7444,-1.7446,0,0,0,0,0,0,-1.7251,-1.7254,-1.7304,-1.7306,-1.7264,-1.728,-1.7282,-1.7295,-1.7304,-1.7303,-1.7288,-1.7285,-1.7309,-1.7312,-1.7315,-1.7373,-1.7319,-1.7321,-1.7323,-1.7443,-1.7445,-1.7447,0,0,0,0,0,0,-1.7249,-1.7256,-1.7304,-1.728,-1.7285,-1.7283,-1.7298,-1.7296,-1.7305,-1.7305,-1.7304,-1.7297,-1.7308,-1.7312,-1.7347,-1.7373,-1.7323,-1.7325,-1.744,-1.7443,-1.7446,-1.7488,0,0,0,0,0,0,-1.7248,-1.7255,-1.7274,-1.728,-1.7286,-1.7335,-1.7299,-1.7298,-1.7309,-1.7306,-1.7314,-1.7314,-1.7307,-1.7344,-1.735,-1.7375,-1.7327,-1.7438,-1.7442,-1.7445,-1.7484,-1.7491,-1.7498,0,0,0,0,0,-1.7245,-1.7285,-1.7275,-1.7281,-1.731,-1.7337,-1.734,-1.7332,-1.7311,-1.733,-1.733,-1.7313,-1.7369,-1.7348,-1.7354,-1.7381,-1.7437,-1.7441,-1.7445,-1.7481,-1.749,-1.7498,0,0,0,0,0,0,-1.7282,-1.7285,-1.7275,-1.7317,-1.7327,-1.7332,-1.7355,-1.7342,-1.7357,-1.7353,-1.7341,-1.7343,-1.7381,-1.7384,-1.736,-1.7428,-1.7399,-1.7405,-1.7425,-1.7433,-1.744,-1.7439,-1.7329,0,0,0,0,0,-1.7295,-1.7317,-1.7319,-1.7356,-1.7362,-1.7357,-1.7369,-1.7361,-1.7371,-1.7375,-1.7377,-1.7387,-1.7407,-1.742,-1.7438,-1.7484,-1.7485,-1.7506,-1.7512,-1.7518,-1.7523,-1.7548,-1.7557,-1.746,-1.746,-1.746,0,0,-1.7322,-1.7326,-1.7341,-1.7364,-1.737,-1.7393,-1.7361,-1.7387,-1.7404,-1.7379,-1.7412,-1.7414,-1.7425,-1.7465,-1.7484,-1.7469,-1.755,-1.7523,-1.7528,-1.753,-1.7553,-1.7562,-1.757,-1.7463,-1.7462,-1.7462,0,0,-1.7383,-1.7389,-1.7421,-1.7428,-1.7438,-1.7435,-1.7443,-1.7449,-1.745,-1.7483,-1.7465,-1.7485,-1.7519,-1.7527,-1.7535,-1.7599,-1.7584,-1.7605,-1.7642,-1.7666,-1.7673,-1.768,-1.7703,-1.7712,-1.761,-1.761,-1.761,0,-1.7415,-1.7449,-1.7439,-1.7466,-1.7476,-1.7454,-1.7486,-1.7494,-1.751,-1.7517,-1.7501,-1.7543,-1.7548,-1.7591,-1.7606,-1.7614,-1.7622,-1.7605,-1.7673,-1.768,-1.7686,-1.7708,-1.7716,-1.7613,-1.7612,-1.7612,-1.7612,0,-1.7489,-1.7513,-1.7537,-1.7553,-1.7566,-1.7595,-1.7589,-1.7603,-1.7594,-1.7593,-1.7627,-1.7633,-1.7651,-1.7661,-1.7652,-1.7702,-1.7693,-1.7675,-1.7646,-1.7698,-1.7718,-1.7726,-1.7616,-1.7615,-1.7615,-1.7614,0,0,-1.7574,-1.7583,-1.7593,-1.7599,-1.7609,-1.7627,-1.7655,-1.7674,-1.7687,-1.7698,-1.7722,-1.7751,-1.7734,-1.7744,-1.7736,-1.7757,-1.7807,-1.7736,-1.7736,-1.775,-1.7863,-1.7877,-1.7886,-1.7797,-1.7799,-1.78,-1.7862,0,-1.7635,-1.7685,-1.7675,-1.7723,-1.7745,-1.7724,-1.7749,-1.7758,-1.7757,-1.7775,-1.7774,-1.7795,-1.7772,-1.7777,-1.7797,-1.7797,-1.783,-1.7792,-1.7819,-1.782,-1.7818,-1.7897,-1.7912,-1.797,-1.787,-1.7871,-1.7872,0,-1.7714,-1.7728,-1.7778,-1.7784,-1.7793,-1.7815,-1.7831,-1.7849,-1.7858,-1.7856,-1.7867,-1.7855,-1.7883,-1.7853,-1.7892,-1.7866,-1.7877,-1.7878,-1.788,-1.7883,-1.785,-1.7902,-1.7988,-1.7997,-1.7885,-1.7884,-1.7883,0,-1.7771,-1.7803,-1.7837,-1.7844,-1.7852,-1.7868,-1.7872,-1.7879,-1.7891,-1.7905,-1.7912,-1.7929,-1.7938,-1.7952,-1.7944,-1.7923,-1.7984,-1.7954,-1.7984,-1.7984,-1.7998,-1.7997,-1.8088,-1.8004,-1.8004,-1.8004,-1.8003,0,-1.7841,-1.7873,-1.7863,-1.7885,-1.7919,-1.7908,-1.7943,-1.7944,-1.7951,-1.7972,-1.7954,-1.7974,-1.7963,-1.7982,-1.7977,-1.801,-1.8014,-1.8013,-1.8011,-1.8015,-1.8015,-1.8022,-1.8018,-1.8006,-1.8005,-1.8005,-1.8005,0,-1.7912,-1.7907,-1.7943,-1.7947,-1.7949,-1.7974,-1.7978,-1.7997,-1.7995,-1.8022,-1.8027,-1.8024,-1.8045,-1.8039,-1.8062,-1.8059,-1.81,-1.8093,-1.8098,-1.8096,-1.8126,-1.8124,-1.8225,-1.8237,-1.8145,-1.8146,-1.8146,0,-1.7957,-1.7981,-1.7988,-1.8001,-1.8006,-1.8027,-1.8038,-1.8028,-1.8041,-1.8053,-1.8071,-1.8091,-1.8107,-1.8142,-1.8141,-1.8159,-1.8152,-1.8186,-1.8155,-1.8158,-1.8154,-1.8153,-1.8155,-1.8193,-1.8194,-1.8195,-1.8196,0,-1.8038,-1.8034,-1.8052,-1.8069,-1.8083,-1.8096,-1.8107,-1.8118,-1.8109,-1.8124,-1.8146,-1.8158,-1.8182,-1.8202,-1.8218,-1.8222,-1.8207,-1.8205,-1.8213,-1.8218,-1.822,-1.8219,-1.8115,-1.8203,-1.8203,-1.8202,-1.8202,-1.8201,-1.8097,-1.8118,-1.8126,-1.8146,-1.8153,-1.8164,-1.8183,-1.8182,-1.82,-1.8219,-1.8212,-1.8237,-1.8245,-1.8265,-1.8271,-1.829,-1.8277,-1.8289,-1.8292,-1.8295,-1.8299,-1.8216,-1.8293,-1.8293,-1.8293,-1.8293,-1.8292,0,-1.8178,-1.8182,-1.82,-1.8217,-1.8232,-1.8217,-1.8229,-1.8243,-1.8265,-1.8274,-1.829,-1.8315,-1.8334,-1.8335,-1.8353,-1.8368,-1.8362,-1.8373,-1.8372,-1.8374,-1.8309,-1.8301,-1.8378,-1.8378,-1.8378,-1.8378,-1.8378,-1.8378,-1.8222,-1.8255,-1.8252,-1.8289,-1.8293,-1.8317,-1.8325,-1.8335,-1.8342,-1.8371,-1.8387,-1.8387,-1.8393,-1.8411,-1.8428,-1.8427,-1.8435,-1.8449,-1.8446,-1.8387,-1.8378,-1.837,-1.8362,-1.8451,-1.8451,-1.8509,-1.851,-1.851]}]]